Weather in Zghurivka

Ukraine / Kyiv Region     50°29′53″N   31°46′26″E
В апреле 2022 года жителям России запретили посещать сайт meteo.paraplan.net по решению Генеральной прокуратуры. Аудитория сайта уменьшилась в 10 раз. Владельцы сайта не видят смысла в поддержке погодного сервера в таких условиях. Сайт будет закрыт в октябре.
temp.,
°C
wind,
m/s
gust,
m/s
humid.,
%
clouds,
%
prec.,
mm/h
press.,
hPa
HPBL,
m
4 october, tue
tue400:00+7w51286100 1.6 1003947
03:00+7wsw61086100 1.9 10051060
06:00+7sw61189100 0.6 1005972
09:00+7sw5988100 1.3 10071021
12:00+8wsw61087100 0.4 10101092
15:00+8wsw51084100 0.9 10121157
18:00+9sw61187100 0.3 1013603
21:00+9wsw4990100 0.8 1014475
5 october, wed
wed500:00+9wsw4995100 1.2 1016525
03:00+9w6129270 1.9 1017641
06:00+8w6129558 0.1 1019475
09:00+9wnw6108770 0.1 1021670
12:00+10w6878100 0.0 1022857
15:00+11wnw4880100 0.0 1023941
18:00+12w3576100 0.0 1023118
21:00+11wsw3780100 0.0 1024205
6 october, thu
thu600:00+10sw3684100 0.0 1024129
03:00+10wsw3784100 0.0 1024178
06:00+9sw3886100 0.0 1023169
09:00+11wsw4979100 0.0 1024293
12:00+15wsw57595 0.0 1023647
15:00+18w57515 0.0 1023920
18:00+14wsw346966 0.0 102257
21:00+12w477882 0.0 1023128
7 october, fri
fri700:00+11w378965 0.0 1025128
03:00+10wnw379395 0.0 1025135
06:00+10nw4109630 0.0 1026237
09:00+11nnw5108844 0.0 1028377
12:00+15n566266 0.0 1028715
15:00+17n564712 0.0 1027910
18:00+13n336569 0.0 102828
21:00+11nne22785 0.0 102818
8 october, sat
sat800:00+10ne22850 0.0 102818
03:00+9e22880 0.0 102717
06:00+8ese22900 0.0 102720
09:00+10se23795 0.0 1026136
12:00+15sse23565 0.0 1024613
15:00+17sse23505 0.0 10221004
18:00+14ssw22665 0.0 102111
21:00+12s117424 0.0 102110